This is the latest recevied weather packets stored in our database for station/object ALANSN-2. If no packets are shown the sender has not sent any weather packets the latest 10 day(s).
| Time | Temp. | Humidity | Pressure | Rain* | Wind** | Luminosity | Snow |
|---|---|---|---|---|---|---|---|
| 1787849517 | 20° C | 83% | 1025.6 hPa | 0 mm | - | 242 W/m² | - |
| 1787849218 | 20° C | 83% | 1025.6 hPa | 0 mm | - | 242 W/m² | - |
| 1787848919 | 20° C | 81% | 1025.7 hPa | 0 mm | - | 295 W/m² | - |
| 1787848624 | 19.44° C | 83% | 1025.7 hPa | 0 mm | - | 697 W/m² | - |
| 1787848318 | 19.44° C | 86% | 1025.7 hPa | 0 mm | - | 170 W/m² | - |
| 1787848020 | 19.44° C | 84% | 1025.6 hPa | 0 mm | - | 739 W/m² | - |
| 1787847719 | 19.44° C | 83% | 1025.6 hPa | 0 mm | - | 216 W/m² | - |
| 1787847421 | 19.44° C | 83% | 1025.7 hPa | 0 mm | - | 698 W/m² | - |
| 1787847118 | 20° C | 84% | 1025.6 hPa | 0 mm | - | 199 W/m² | - |
| 1787846820 | 18.89° C | 87% | 1025.5 hPa | 0 mm | - | 671 W/m² | - |
| 1787846220 | 19.44° C | 86% | 1025.5 hPa | 0 mm | - | 818 W/m² | - |
| 1787845919 | 19.44° C | 86% | 1025.5 hPa | 0 mm | - | 822 W/m² | - |
| 1787845619 | 18.89° C | 90% | 1025.3 hPa | 0 mm | - | 233 W/m² | - |
| 1787845319 | 18.89° C | 90% | 1025.4 hPa | 0 mm | - | 228 W/m² | - |
| 1787845019 | 17.78° C | 92% | 1025.2 hPa | 0 mm | - | 292 W/m² | - |
| 1787844719 | 17.78° C | 94% | 1025.3 hPa | 0 mm | - | 155 W/m² | - |
| 1787844420 | 17.78° C | 94% | 1025.4 hPa | 0 mm | - | 178 W/m² | - |
| 1787844119 | 17.78° C | 94% | 1025.2 hPa | 0 mm | - | 106 W/m² | - |
| 1787843821 | 17.78° C | 93% | 1025.1 hPa | 0 mm | - | 118 W/m² | - |
| 1787843519 | 18.33° C | 93% | 1024.9 hPa | 0 mm | - | 124 W/m² | - |
| 1787843220 | 18.33° C | 92% | 1025 hPa | 0 mm | - | 138 W/m² | - |
| 1787842920 | 18.33° C | 93% | 1024.6 hPa | 0 mm | - | 135 W/m² | - |
| 1787842620 | 18.33° C | 93% | 1024.6 hPa | 0 mm | - | 135 W/m² | - |
| 1787842319 | 17.78° C | 92% | 1024.4 hPa | 0 mm | - | 172 W/m² | - |
| 1787842020 | 17.78° C | 93% | 1024.7 hPa | 0 mm | - | 139 W/m² | - |
* Rain latest hour (hover to see other rain measurements)
** Current wind speed in m/s (hover to see current wind gust speed)